Regional Weather Roundup
Issued by NWS

Home | Current Version | Previous Version | Graphics & Text | Print | Product List | Glossary On
Versions: 1 2 3 4 5 6 7 8 9 10 11 12 13 14 15 16 17 18 19 20 21 22 23 24 25 26 27 28 29 30 31 32 33 34 35 36 37 38 39 40 41 42 43 44 45 46 47 48 49 50
000
ASUS43 KOAX 240910
RWRNE

WEATHER ROUNDUP FOR NEBRASKA
NATIONAL WEATHER SERVICE OMAHA NE
300 AM CST FRI FEB 24 2017

NOTES: SATELLITE DATA IS BEING USED TO AUGMENT CLOUD COVER ABOVE
       12000 FEET.
       "FAIR" INDICATES FEW OR NO CLOUDS BELOW 12,000 FEET WITH NO
       SIGNIFICANT WEATHER AND/OR OBSTRUCTIONS TO VISIBILITY.

  * THESE STATIONS DO NOT REPORT WEATHER SUCH AS RAIN...SNOW OR FOG.

NEZ001>004-019>022-054>056-241000-
NEBRASKA PANHANDLE

CITY           SKY/WX    TMP DP  RH WIND       PRES   REMARKS
SCOTTSBLUFF    LGT SNOW  22  17  81 N14       29.91R WCI   9
ALLIANCE       LGT SNOW  20  17  88 N16       29.89R FOG     WCI   6
CHADRON        LGT SNOW  22  19  89 NE9       29.97S FOG     WCI  12
KIMBALL        LGT SNOW  19  19  98 N12       29.85S WCI   7
SIDNEY         LGT SNOW  20  16  84 N15       29.86S FOG     WCI   6
$$

NEZ057>060-069>072-079>082-241000-
SOUTHWEST NEBRASKA

CITY           SKY/WX    TMP DP  RH WIND       PRES   REMARKS
NORTH PLATTE   LGT SNOW  23  19  85 N22G30    29.81S VSB 3/4 WCI   8
IMPERIAL       LGT SNOW  23  19  85 N17       29.84R FOG     WCI   9
LEXINGTON      LGT SNOW  25  21  85 N17       29.78R WCI  12
MCCOOK         CLOUDY    25  21  85 N18       29.81R WCI  11
OGALLALA       LGT SNOW  24  20  86 N23G29    29.85S WCI   8
$$

NEZ005>010-023>029-035>040-094-241000-
NORTH CENTRAL NEBRASKA

CITY           SKY/WX    TMP DP  RH WIND       PRES   REMARKS
VALENTINE      CLOUDY    23  19  85 N16G26    29.91S FOG     WCI  10
AINSWORTH        N/A     23  22  96 N28       29.87S WCI   6
BROKEN BOW     LGT SNOW  24  22  91 N28G35    29.78R VSB 3/4 WCI   7
O`NEILL        CLOUDY    25  23  95 N23G30    29.83S WCI   9
ORD            SNOW      25  21  85 N21G29    29.77R VSB 1/2 WCI  11
THEDFORD       LGT SNOW  24  21  91 N20G25    29.85R WCI   9
$$

NEZ041-046>049-061>064-073>077-083>087-241000-
SOUTH CENTRAL NEBRASKA

CITY           SKY/WX    TMP DP  RH WIND       PRES   REMARKS
GRAND ISLAND   FRZ RAIN  27  26  96 N23G29    29.73R FOG     WCI  12
AURORA         MIX PCPN  28  27  96 N18       29.70S WCI  16
HASTINGS       FRZ RAIN  28  25  88 N24G30    29.72S FOG     WCI  14
HEBRON         MIX PCPN  32  31  96 N14       29.67S WCI  22
HOLDREGE       CLOUDY    26  24  93 N14G22    29.76R FOG     WCI  14
KEARNEY *      CLOUDY    27  21  80 N20       29.75S WCI  13
YORK           LGT RAIN  28  28 100 N20G29    29.67F WCI  15
$$

NEZ011>018-030>034-042>045-241000-
NORTHEAST NEBRASKA

CITY           SKY/WX    TMP DP  RH WIND       PRES   REMARKS
NORFOLK        LGT SNOW  26  23  88 N20G29    29.73S FOG     WCI  12
ALBION         LGT SNOW  28  23  83 N23G32    29.73S WCI  13
BLAIR          MIX PCPN  32  30  93 N26G32    29.61F WCI  18
FREMONT        LGT SNOW  31  31 100 N9        29.66F WCI  23
TEKAMAH        LGT SNOW  31  29  92 N24       29.67R VSB 3/4 WCI  17
WAYNE          LGT SNOW  28  27  94 N24       29.74R WCI  14
$$

NEZ050>053-065>068-078-088>093-241000-
SOUTHEAST NEBRASKA

CITY           SKY/WX    TMP DP  RH WIND       PRES   REMARKS
LINCOLN        LGT SNOW  33  32  96 N17       29.63F FOG     WCI  22
OMAHA EPPLEY   CLOUDY    35  29  78 N21G28    29.63R WCI  24
BEATRICE       CLOUDY    33  33  98 N14       29.62S WCI  23
FALLS CITY     CLOUDY    36  33  89 NW16      29.55S WCI  26
NEBRASKA CITY  CLOUDY    34  34 100 N15G23    29.57S WCI  24
PLATTSMOUTH    CLOUDY    34  30  84 N12G20    29.59S WCI  25
$$

NEZ044-045-051>053-067-241000-
OMAHA AREA

CITY           SKY/WX    TMP DP  RH WIND       PRES   REMARKS
OMAHA EPPLEY   CLOUDY    35  29  78 N21G28    29.63R WCI  24
BLAIR          MIX PCPN  32  30  93 N26G32    29.61F WCI  18
FREMONT        LGT SNOW  31  31 100 N9        29.66F WCI  23
MILLARD        DRIZZLE   36  32  87 N6        29.62F WCI  31
OFFUTT AFB     CLOUDY    35  30  83 N21G26    29.60S WCI  24
PLATTSMOUTH    CLOUDY    34  30  84 N12G20    29.59S WCI  25
WAHOO          LGT SNOW  32  30  94 N22       29.64F WCI  19
$$



USA.gov is the U.S. government's official web portal to all federal, state and local government web resources and services.